Theta_e
321 323 324 326 327 328 327 327 328 328 328 327 326 326 325 325 325 325 324 322 320 319 319 318 318 318 317 316 316 316 315 314 310 309 307 298 300 298 294 294 293 295 295
315 318 320 323 325 325 326 327 327 327 327 327 325 325 325 324 324 324 322 320 319 318 317 317 317 317 316 317 316 313 314 314 311 306 303 299 299 296 295 292 293 293 293
310 312 317 319 321 323 324 325 326 326 326 325 324 323 323 323 324 323 321 319 319 318 317 316 316 315 313 312 311 310 310 306 305 301 300 296 293 291 287 289 288 288 291
308 309 312 316 320 321 322 323 324 324 324 323 322 322 322 323 321 318 317 317 315 314 311 311 309 308 307 306 305 305 302 301 299 296 291 292 291 286 287 286 286 286 286
306 308 310 313 317 319 319 320 321 320 321 321 319 319 321 320 315 311 309 310 308 305 303 302 302 298 297 301 302 302 301 296 290 290 288 288 288 286 286 286 285 285 285
304 307 310 312 313 313 313 312 312 314 311 311 313 315 311 304 301 301 305 306 302 301 299 298 298 290 292 294 296 296 298 297 290 289 287 288 288 287 286 285 285 284 285
302 304 307 308 306 307 306 305 305 310 311 310 307 306 304 298 297 298 296 299 297 297 297 295 293 293 291 293 294 293 292 295 296 293 288 289 288 288 287 285 284 284 284
299 300 298 298 300 300 298 298 297 298 298 303 300 300 297 294 294 295 293 294 294 293 294 292 291 290 290 290 289 288 288 288 289 290 291 290 291 289 288 287 285 284 283
296 296 294 296 298 296 297 297 299 294 293 295 293 292 292 289 294 294 292 290 289 289 289 289 290 289 290 292 288 286 286 286 291 292 292 292 292 290 288 286 283 284 282
295 293 294 297 298 298 299 297 291 295 292 290 289 291 288 289 293 293 292 290 288 288 287 287 287 288 291 292 288 287 285 285 285 284 285 287 288 288 289 285 283 284 281
295 291 292 294 295 297 295 290 291 290 289 288 288 288 288 288 290 293 293 289 289 287 286 286 286 291 291 292 290 287 287 286 286 284 283 283 284 282 280 281 283 281 277
296 292 292 292 292 291 291 290 290 289 288 287 287 287 287 287 288 292 293 291 291 287 286 286 287 291 291 291 288 290 289 286 284 284 282 282 283 283 282 282 282 282 281
291 291 290 289 290 290 290 289 289 288 288 287 288 288 286 286 288 292 292 292 291 287 287 288 290 291 291 290 289 289 285 284 283 282 281 282 283 284 283 283 283 283 283
292 291 290 288 288 289 290 290 290 289 289 288 288 288 287 286 287 289 288 289 288 287 288 289 289 288 287 286 285 285 284 284 283 282 283 283 284 283 283 283 282 282 281
292 292 289 288 288 289 290 290 290 291 291 289 289 289 287 286 288 289 288 286 286 287 286 286 285 284 283 283 282 282 282 283 282 282 283 282 282 282 281 282 281 280 279
290 290 289 288 288 289 289 289 291 291 291 292 292 291 289 291 290 289 288 288 289 288 285 283 283 283 282 282 282 281 282 282 282 282 282 282 281 281 280 281 280 279 278
289 290 288 287 288 288 288 288 287 288 291 291 291 291 290 289 289 288 288 289 289 288 285 284 283 283 282 282 282 282 281 282 282 282 282 281 281 280 280 279 277 274 270
288 289 288 287 288 288 289 289 289 288 287 287 290 289 290 289 289 288 289 289 286 286 285 284 283 283 283 282 282 282 282 281 281 281 280 280 280 279 276 271 272 271 269
286 288 287 287 288 288 289 289 289 288 288 287 286 288 288 289 289 288 289 286 285 284 284 284 284 283 283 283 283 283 282 281 280 279 279 278 277 276 271 271 270 268 266
286 287 286 287 287 288 288 288 287 287 286 285 285 285 286 286 285 285 286 285 284 284 284 284 284 284 283 282 281 280 276 275 274 275 272 269 268 267 266 264 262 261 260
285 287 287 288 288 288 288 287 287 287 286 285 286 286 287 286 285 285 284 284 284 284 284 284 283 282 280 279 276 274 273 271 269 267 267 265 265 265 263 262 259 258 257
285 286 286 287 287 287 287 287 287 287 286 286 286 286 288 286 286 285 285 285 285 284 282 279 276 276 275 275 274 273 271 269 267 267 266 264 264 262 260 258 257 256 255
282 284 285 285 286 286 286 286 286 286 286 286 285 285 286 285 285 285 284 280 277 276 275 274 272 270 270 270 272 272 270 268 268 267 265 264 263 262 258 258 256 253 254
279 281 281 282 283 284 284 284 284 285 285 285 285 285 285 285 284 277 274 273 272 271 271 270 270 268 267 267 267 267 267 266 265 265 265 264 261 260 258 255 253 253 253
272 273 278 280 281 281 282 282 282 282 282 283 284 284 281 277 274 272 270 269 269 268 268 268 267 266 266 265 265 264 265 265 263 263 262 262 260 259 254 251 251 251 251
269 270 271 272 273 274 275 276 277 278 277 277 275 274 274 272 270 269 268 268 267 266 266 265 265 265 265 264 264 264 264 265 263 263 262 261 259 255 253 252 250 249 250
Wind_Speed
13 15 16 16 18 17 17 17 17 15 15 16 14 15 14 14 13 13 13 10 12 10 9 10 10 8 6 6 6 7 7 6 6 3 2 1 3 2 1 1 1 1 2
12 12 15 15 16 18 18 19 16 17 15 15 14 14 14 13 13 14 13 10 12 11 11 10 10 7 9 9 7 8 8 6 5 5 3 3 3 2 1 1 2 2 2
7 9 11 15 14 17 18 17 16 15 15 14 14 14 14 14 14 13 12 11 11 11 11 11 10 8 7 4 4 5 3 3 3 3 3 1 1 2 1 1 2 2 3
8 8 13 13 15 15 15 15 16 16 15 14 14 14 14 14 12 11 10 9 9 8 7 7 7 8 7 5 4 6 5 4 3 2 2 2 2 2 2 2 1 0 2
9 10 15 12 12 12 12 12 11 12 14 14 13 12 13 10 8 9 8 9 9 7 6 6 6 6 8 7 5 8 4 3 2 2 2 3 2 2 3 2 1 0 1
9 14 13 11 10 11 9 8 8 9 7 9 10 12 9 5 13 14 11 9 8 8 8 6 5 6 5 6 5 3 4 4 4 3 2 3 3 2 2 2 1 1 1
11 13 12 11 9 9 8 8 9 11 9 10 9 11 11 8 14 16 14 8 7 7 7 6 5 4 6 5 6 8 6 4 2 4 3 3 2 4 4 4 2 1 1
11 11 8 8 10 8 8 9 7 6 8 9 8 9 9 7 15 14 13 8 7 8 8 7 7 7 6 7 7 6 5 4 3 2 3 3 2 3 3 2 3 4 2
15 13 8 9 12 10 12 12 11 8 7 10 9 10 11 8 16 16 12 7 6 6 6 7 8 8 10 12 7 7 6 4 7 10 11 10 10 10 7 3 3 1 2
11 11 11 12 13 15 15 13 6 8 8 7 7 8 8 10 15 16 13 7 8 6 5 5 9 8 14 13 8 9 9 7 6 5 5 7 6 6 6 3 3 3 2
13 10 11 13 16 15 12 8 11 9 9 8 8 6 8 10 12 17 16 8 7 7 6 5 4 12 14 14 11 8 6 10 11 7 6 5 4 2 2 3 3 3 3
16 13 13 13 12 10 13 10 11 12 12 10 10 7 5 7 10 15 16 10 11 8 7 5 5 15 15 14 10 13 18 13 6 7 6 6 6 3 2 3 4 4 2
11 14 13 11 11 11 14 13 11 12 12 11 11 10 8 7 7 16 18 16 15 6 6 10 15 15 17 13 17 17 11 7 6 8 7 4 3 3 4 3 2 3 3
17 16 12 11 10 11 9 10 12 13 12 12 13 12 10 9 8 8 8 9 13 9 13 10 11 12 13 11 9 8 5 6 6 7 7 6 5 3 4 2 3 2 3
17 18 11 10 13 12 12 13 14 15 18 18 15 15 16 14 14 17 15 11 10 12 12 8 8 8 7 7 6 6 5 6 7 7 7 5 4 3 2 2 2 1 2
19 15 11 9 10 10 11 9 14 11 18 16 15 16 12 13 25 25 23 21 21 26 10 9 8 8 9 9 8 8 7 7 6 6 6 5 4 4 3 2 2 2 2
19 18 10 11 10 11 12 12 12 7 13 13 18 19 20 22 28 27 26 25 27 23 8 10 9 9 9 9 8 8 7 7 7 5 6 5 5 4 5 4 1 2 1
17 23 11 11 11 11 12 12 11 13 14 12 17 16 20 28 30 30 29 24 16 13 8 10 10 9 9 9 9 8 8 7 7 6 6 5 5 6 3 3 2 2 2
12 12 9 8 9 10 10 10 10 11 10 9 9 13 20 27 27 30 31 13 15 12 10 9 9 9 9 9 9 8 9 9 7 7 7 6 6 5 3 3 3 2 3
12 16 9 7 7 9 9 11 10 11 11 11 12 12 13 18 17 16 14 12 12 10 10 10 10 9 9 9 9 8 7 8 6 6 5 4 4 3 3 3 3 3 2
9 9 10 7 8 8 9 10 10 11 12 13 13 15 27 18 17 16 14 13 12 11 11 11 10 9 8 8 9 8 9 8 7 6 5 4 4 4 4 3 3 3 3
8 6 6 7 5 7 8 8 9 10 11 11 10 14 30 11 13 14 14 12 11 11 9 10 8 7 7 9 9 9 9 9 8 7 6 5 5 4 4 3 3 2 3
8 6 5 5 6 6 7 8 9 9 10 11 12 13 14 11 12 13 15 11 11 10 10 10 10 7 5 5 5 8 10 10 9 8 8 7 6 5 4 3 3 3 3
11 6 4 2 2 4 5 6 7 11 11 10 11 13 13 11 12 12 13 12 11 10 10 10 9 11 8 6 5 5 7 8 7 7 9 8 7 6 4 3 4 3 3
10 10 8 6 2 3 5 6 7 8 7 9 10 10 9 8 9 13 12 11 10 11 11 11 9 12 12 11 9 10 12 14 9 9 6 7 8 8 5 4 4 3 2
12 12 9 8 7 6 4 1 2 3 5 5 6 7 8 9 9 11 12 12 11 11 12 9 11 13 14 10 11 12 13 13 11 11 7 7 7 5 4 5 6 4 3
Wind_Direction
223 227 223 222 222 219 219 218 214 208 200 201 197 198 197 198 197 200 208 189 194 197 198 207 213 195 205 205 201 214 214 212 244 251 149 136 137 99 31 42 346 314 286
234 236 229 222 220 220 219 218 212 208 203 197 194 192 194 194 197 203 203 192 191 195 201 199 204 199 210 210 209 212 215 212 206 248 186 173 186 139 185 277 314 310 296
236 239 246 232 221 223 224 218 213 207 201 197 191 193 191 195 196 204 199 188 197 200 195 198 204 195 207 189 187 197 197 189 169 168 218 131 125 84 11 330 320 3 335
231 232 243 241 233 225 223 218 211 207 199 192 191 192 194 193 198 192 191 195 189 183 170 166 165 174 180 198 206 206 198 196 165 178 187 201 181 135 172 212 295 45 297
224 228 237 237 232 227 223 221 216 202 198 191 184 184 188 193 188 169 173 172 170 168 169 174 173 179 192 198 210 227 203 175 141 175 200 195 173 166 194 155 204 137 238
234 231 234 227 222 226 217 199 202 203 181 166 174 176 164 166 163 166 171 180 174 172 174 183 181 162 178 184 199 184 186 176 162 159 185 201 195 178 137 165 174 88 54
230 236 232 219 217 212 201 188 190 192 179 177 171 161 171 161 167 165 163 163 166 179 180 177 173 170 172 154 158 131 104 131 153 165 177 213 175 172 147 148 155 134 92
246 244 228 216 221 204 189 182 166 159 176 184 176 170 169 170 170 161 160 154 164 171 171 174 170 166 164 154 156 147 127 89 75 80 127 127 125 137 139 132 138 120 111
248 246 227 214 219 192 197 190 188 161 168 182 177 166 168 164 165 164 153 152 152 156 156 169 172 161 166 163 155 144 123 104 93 96 100 98 101 108 125 122 88 76 61
270 246 227 220 217 209 204 194 169 183 176 157 159 168 153 159 166 165 159 156 158 158 161 161 167 159 163 169 159 158 149 153 137 103 86 87 73 73 74 88 124 126 96
269 242 231 219 217 212 198 178 164 159 152 153 156 158 164 166 170 172 167 168 165 162 164 165 175 167 159 170 167 166 157 135 133 118 113 108 114 67 49 59 76 129 132
270 245 240 227 218 199 187 173 164 159 163 164 157 161 166 162 165 180 176 170 163 165 168 163 161 161 153 160 137 141 140 128 137 128 131 128 133 123 82 76 61 59 58
259 248 233 221 209 195 182 179 167 171 171 175 174 172 170 169 174 177 176 173 167 148 150 155 149 148 146 144 136 139 132 135 150 139 139 139 127 122 129 104 114 98 77
276 262 245 214 201 193 190 183 179 180 179 176 175 175 169 169 173 173 172 160 152 142 145 143 147 132 128 125 126 134 140 139 157 140 145 133 141 143 118 104 94 50 71
274 267 233 213 200 201 200 190 196 197 186 177 186 174 168 180 188 172 164 160 155 149 134 139 145 141 142 132 147 136 138 144 139 139 141 128 117 130 132 135 127 97 93
276 264 237 213 199 202 204 200 219 220 199 194 183 182 174 164 163 159 155 158 149 147 145 156 160 163 160 162 157 152 157 149 139 141 141 144 144 139 129 138 149 141 134
264 263 231 215 205 199 200 201 194 176 179 180 173 171 166 154 156 155 158 158 153 149 166 165 165 178 170 161 162 159 157 144 138 150 141 137 133 147 156 153 141 89 63
262 253 226 209 204 200 201 199 192 187 179 174 172 163 161 159 158 158 159 145 158 169 176 167 169 178 171 166 162 157 147 140 143 135 135 146 155 162 153 132 122 126 114
270 258 231 205 199 200 196 192 191 185 178 169 152 165 163 162 162 162 163 164 160 165 170 167 167 173 171 167 157 154 152 146 134 146 150 153 159 161 146 129 124 139 129
283 262 234 210 188 196 195 190 182 180 177 170 169 166 160 155 164 169 176 162 152 164 170 166 167 171 171 164 149 144 131 126 132 145 141 133 136 133 134 128 139 154 145
280 264 232 221 203 201 203 203 193 188 181 179 179 174 172 172 170 174 169 157 159 167 171 162 157 158 154 148 142 146 144 137 128 126 131 135 142 132 127 131 148 123 113
289 260 241 230 214 202 201 204 195 190 186 183 179 174 175 176 170 167 159 153 159 157 146 138 135 142 154 157 156 151 144 138 134 137 142 146 143 135 140 137 133 120 105
303 273 238 222 216 202 190 199 193 185 187 175 166 168 173 174 173 171 138 139 135 132 127 129 127 122 126 129 149 154 149 151 150 145 149 153 150 146 143 146 145 118 120
320 306 303 264 181 188 188 183 199 194 175 169 168 171 175 179 163 136 129 130 129 127 121 126 130 139 137 130 130 124 122 121 126 145 149 149 146 144 138 142 146 136 129
345 346 338 356 327 213 193 194 196 182 166 162 168 170 156 142 149 129 128 128 133 126 122 126 132 140 142 142 143 133 128 127 133 139 136 137 145 149 147 139 133 108 112
1 4 358 3 3 3 9 10 117 158 140 129 123 134 140 142 137 127 129 134 134 124 124 125 134 136 140 142 141 134 137 143 145 149 146 147 149 150 144 140 138 130 149